N36BG TNCM-TFFR

Flight info

Callsign N36BG
Flight time 1h 8m
Altitude 3500
Route 180312N0630111W DCT 175351N0624951W 172443N0624717W 171917N0624042W 171026N0623218W 170130N0615315W DCT 161708N0613816W
Aircraft BE36/L-BDFGLORY/S

Departure

Time 2026-04-24 12:03
Airport Princess Juliana International Airport (TNCM)

Arrival

Time 2026-04-24 13:12
Airport Maryse Condé International Airport (TFFR)
Time Latitude Longitude Altitude Speed Heading
2026-04-24 11:55 18.04235 -63.11587 15 ft 0 kts 320°
2026-04-24 11:57 18.04235 -63.11588 15 ft 0 kts 320°
2026-04-24 11:58 18.04227 -63.11581 15 ft 2 kts 320°
2026-04-24 11:58 18.04215 -63.11569 15 ft 2 kts 285°
2026-04-24 11:59 18.04215 -63.11563 15 ft 0 kts 241°
2026-04-24 11:59 18.04215 -63.11564 15 ft 2 kts 239°
2026-04-24 12:00 18.04181 -63.11575 15 ft 10 kts 167°
2026-04-24 12:00 18.04102 -63.11631 15 ft 19 kts 230°
2026-04-24 12:00 18.04051 -63.11787 15 ft 26 kts 261°
2026-04-24 12:00 18.04040 -63.11863 15 ft 0 kts 261°
2026-04-24 12:01 18.04039 -63.11869 15 ft 4 kts 261°
2026-04-24 12:01 18.04015 -63.11920 15 ft 12 kts 236°
2026-04-24 12:01 18.03954 -63.11962 16 ft 8 kts 147°
2026-04-24 12:02 18.03945 -63.11934 16 ft 0 kts 82°
2026-04-24 12:02 18.03946 -63.11931 16 ft 7 kts 82°
2026-04-24 12:02 18.03984 -63.11653 16 ft 69 kts 81°
2026-04-24 12:03 18.04067 -63.11142 322 ft 72 kts 77°
2026-04-24 12:03 18.04132 -63.10548 509 ft 89 kts 80°
2026-04-24 12:03 18.04209 -63.09964 902 ft 74 kts 81°
2026-04-24 12:03 18.04284 -63.09434 1350 ft 73 kts 82°
2026-04-24 12:04 18.04361 -63.08907 1752 ft 73 kts 82°
2026-04-24 12:04 18.04440 -63.08372 2125 ft 76 kts 82°
2026-04-24 12:04 18.04520 -63.07825 2422 ft 75 kts 83°
2026-04-24 12:04 18.04595 -63.07274 2639 ft 76 kts 83°
2026-04-24 12:05 18.04672 -63.06725 3020 ft 76 kts 82°
2026-04-24 12:05 18.04749 -63.06167 3370 ft 78 kts 84°
2026-04-24 12:05 18.04839 -63.05518 3481 ft 105 kts 83°
2026-04-24 12:05 18.04957 -63.04667 3478 ft 128 kts 83°
2026-04-24 12:06 18.05090 -63.03708 3476 ft 137 kts 83°
2026-04-24 12:06 18.05219 -63.02701 3474 ft 140 kts 88°
2026-04-24 12:06 18.05015 -63.01711 3473 ft 141 kts 115°
2026-04-24 12:06 18.04440 -63.00866 3476 ft 144 kts 131°
2026-04-24 12:07 18.03765 -63.00081 3472 ft 145 kts 130°
2026-04-24 12:07 18.03103 -62.99285 3474 ft 144 kts 129°
2026-04-24 12:07 18.02451 -62.98487 3471 ft 144 kts 129°
2026-04-24 12:07 18.01801 -62.97692 3472 ft 143 kts 129°
2026-04-24 12:08 18.01149 -62.96899 3473 ft 143 kts 129°
2026-04-24 12:08 18.00493 -62.96104 3470 ft 144 kts 129°
2026-04-24 12:08 17.99834 -62.95305 3470 ft 145 kts 129°
2026-04-24 12:08 17.99176 -62.94504 3475 ft 145 kts 129°
2026-04-24 12:09 17.98512 -62.93700 3476 ft 146 kts 129°
2026-04-24 12:09 17.97843 -62.92889 3476 ft 147 kts 129°
2026-04-24 12:09 17.97172 -62.92078 3477 ft 147 kts 129°
2026-04-24 12:09 17.96501 -62.91261 3473 ft 148 kts 129°
2026-04-24 12:10 17.95827 -62.90441 3474 ft 148 kts 129°
2026-04-24 12:10 17.95148 -62.89621 3475 ft 149 kts 129°
2026-04-24 12:10 17.94484 -62.88816 3471 ft 147 kts 129°
2026-04-24 12:11 17.93150 -62.87202 3468 ft 146 kts 129°
2026-04-24 12:11 17.92486 -62.86397 3468 ft 146 kts 129°
2026-04-24 12:11 17.91821 -62.85589 3473 ft 146 kts 129°
2026-04-24 12:11 17.91146 -62.84772 3480 ft 150 kts 129°
2026-04-24 12:12 17.90449 -62.83934 3476 ft 153 kts 130°
2026-04-24 12:12 17.89617 -62.83241 3469 ft 155 kts 153°
2026-04-24 12:12 17.88566 -62.82961 3469 ft 157 kts 173°
2026-04-24 12:12 17.87831 -62.82907 3467 ft 156 kts 174°
2026-04-24 12:13 17.86756 -62.82829 3467 ft 154 kts 173°
2026-04-24 12:13 17.85697 -62.82735 3464 ft 152 kts 172°
2026-04-24 12:13 17.84646 -62.82638 3465 ft 151 kts 172°
2026-04-24 12:13 17.83613 -62.82543 3464 ft 151 kts 172°
2026-04-24 12:14 17.82565 -62.82450 3465 ft 152 kts 172°
2026-04-24 12:14 17.81515 -62.82356 3465 ft 151 kts 172°
2026-04-24 12:14 17.80464 -62.82264 3463 ft 152 kts 172°
2026-04-24 12:14 17.79413 -62.82171 3465 ft 151 kts 172°
2026-04-24 12:15 17.78362 -62.82077 3467 ft 152 kts 172°
2026-04-24 12:15 17.77306 -62.81985 3461 ft 152 kts 172°
2026-04-24 12:15 17.76250 -62.81892 3465 ft 153 kts 172°
2026-04-24 12:15 17.75190 -62.81798 3464 ft 153 kts 172°
2026-04-24 12:16 17.74136 -62.81705 3458 ft 152 kts 172°
2026-04-24 12:16 17.73088 -62.81613 3457 ft 151 kts 172°
2026-04-24 12:16 17.72045 -62.81521 3456 ft 150 kts 172°
2026-04-24 12:16 17.71007 -62.81430 3457 ft 150 kts 172°
2026-04-24 12:17 17.69968 -62.81338 3458 ft 150 kts 172°
2026-04-24 12:17 17.68929 -62.81246 3456 ft 150 kts 172°
2026-04-24 12:17 17.67890 -62.81155 3456 ft 150 kts 172°
2026-04-24 12:17 17.66850 -62.81064 3454 ft 150 kts 172°
2026-04-24 12:18 17.65811 -62.80972 3456 ft 150 kts 172°
2026-04-24 12:18 17.64769 -62.80880 3455 ft 150 kts 172°
2026-04-24 12:18 17.63723 -62.80788 3457 ft 151 kts 172°
2026-04-24 12:18 17.62669 -62.80695 3459 ft 152 kts 172°
2026-04-24 12:19 17.61621 -62.80603 3461 ft 152 kts 172°
2026-04-24 12:19 17.60568 -62.80509 3462 ft 152 kts 172°
2026-04-24 12:19 17.59512 -62.80417 3462 ft 152 kts 172°
2026-04-24 12:19 17.58455 -62.80324 3462 ft 153 kts 172°
2026-04-24 12:20 17.57399 -62.80231 3461 ft 152 kts 172°
2026-04-24 12:20 17.56342 -62.80137 3461 ft 152 kts 172°
2026-04-24 12:20 17.55286 -62.80045 3459 ft 152 kts 172°
2026-04-24 12:20 17.54236 -62.79952 3459 ft 151 kts 172°
2026-04-24 12:21 17.53187 -62.79861 3457 ft 151 kts 172°
2026-04-24 12:21 17.52144 -62.79769 3458 ft 151 kts 172°
2026-04-24 12:21 17.51100 -62.79677 3458 ft 151 kts 172°
2026-04-24 12:21 17.50056 -62.79584 3459 ft 151 kts 172°
2026-04-24 12:22 17.49011 -62.79493 3460 ft 151 kts 172°
2026-04-24 12:22 17.47963 -62.79401 3458 ft 151 kts 172°
2026-04-24 12:22 17.46918 -62.79309 3457 ft 150 kts 172°
2026-04-24 12:22 17.45877 -62.79217 3461 ft 150 kts 172°
2026-04-24 12:23 17.44845 -62.79126 3459 ft 151 kts 172°
2026-04-24 12:23 17.43797 -62.79033 3461 ft 151 kts 172°
2026-04-24 12:23 17.42748 -62.78941 3461 ft 152 kts 172°
2026-04-24 12:23 17.41703 -62.78820 3460 ft 150 kts 164°
2026-04-24 12:24 17.40809 -62.78311 3463 ft 146 kts 137°
2026-04-24 12:24 17.40128 -62.77532 3468 ft 146 kts 128°
2026-04-24 12:24 17.39468 -62.76714 3466 ft 147 kts 129°
2026-04-24 12:24 17.38798 -62.75904 3467 ft 147 kts 129°
2026-04-24 12:25 17.38133 -62.75097 3466 ft 146 kts 129°
2026-04-24 12:25 17.37462 -62.74278 3480 ft 152 kts 129°
2026-04-24 12:25 17.36757 -62.73429 3481 ft 156 kts 129°
2026-04-24 12:25 17.36031 -62.72551 3476 ft 162 kts 129°
2026-04-24 12:26 17.35299 -62.71660 3462 ft 159 kts 129°
2026-04-24 12:26 17.34586 -62.70799 3461 ft 154 kts 129°
2026-04-24 12:26 17.33892 -62.69960 3461 ft 151 kts 129°
2026-04-24 12:26 17.33211 -62.69135 3459 ft 149 kts 129°
2026-04-24 12:27 17.32537 -62.68317 3458 ft 148 kts 129°
2026-04-24 12:27 17.31841 -62.67528 3460 ft 147 kts 135°
2026-04-24 12:27 17.31085 -62.66805 3461 ft 147 kts 136°
2026-04-24 12:27 17.30321 -62.66092 3459 ft 147 kts 136°
2026-04-24 12:28 17.29559 -62.65379 3461 ft 147 kts 136°
2026-04-24 12:28 17.28798 -62.64661 3464 ft 147 kts 136°
2026-04-24 12:28 17.28037 -62.63939 3462 ft 148 kts 136°
2026-04-24 12:28 17.27277 -62.63216 3435 ft 148 kts 136°
2026-04-24 12:29 17.26516 -62.62492 3435 ft 148 kts 136°
2026-04-24 12:29 17.25753 -62.61771 3432 ft 148 kts 136°
2026-04-24 12:29 17.24994 -62.61048 3434 ft 148 kts 136°
2026-04-24 12:29 17.24229 -62.60322 3435 ft 149 kts 136°
2026-04-24 12:30 17.23464 -62.59596 3434 ft 148 kts 136°
2026-04-24 12:30 17.22703 -62.58874 3438 ft 147 kts 136°
2026-04-24 12:30 17.21954 -62.58163 3433 ft 148 kts 136°
2026-04-24 12:30 17.21194 -62.57443 3431 ft 148 kts 136°
2026-04-24 12:31 17.20431 -62.56720 3437 ft 148 kts 136°
2026-04-24 12:31 17.19668 -62.55997 3437 ft 148 kts 136°
2026-04-24 12:31 17.18899 -62.55264 3446 ft 153 kts 136°
2026-04-24 12:31 17.18110 -62.54510 3445 ft 153 kts 136°
2026-04-24 12:32 17.17414 -62.53680 3438 ft 151 kts 117°
2026-04-24 12:32 17.17110 -62.52646 3437 ft 148 kts 101°
2026-04-24 12:32 17.16896 -62.51600 3464 ft 147 kts 102°
2026-04-24 12:32 17.16661 -62.50563 3465 ft 147 kts 103°
2026-04-24 12:33 17.16418 -62.49526 3464 ft 147 kts 103°
2026-04-24 12:33 17.16177 -62.48492 3463 ft 147 kts 103°
2026-04-24 12:33 17.15939 -62.47456 3464 ft 146 kts 103°
2026-04-24 12:33 17.15703 -62.46419 3464 ft 146 kts 103°
2026-04-24 12:34 17.15469 -62.45383 3457 ft 146 kts 103°
2026-04-24 12:34 17.15235 -62.44352 3463 ft 146 kts 103°
2026-04-24 12:34 17.15000 -62.43323 3462 ft 146 kts 103°
2026-04-24 12:34 17.14766 -62.42298 3463 ft 145 kts 103°
2026-04-24 12:35 17.14533 -62.41277 3464 ft 144 kts 103°
2026-04-24 12:35 17.14301 -62.40255 3463 ft 145 kts 103°
2026-04-24 12:35 17.14067 -62.39227 3463 ft 146 kts 103°
2026-04-24 12:35 17.13833 -62.38195 3463 ft 146 kts 103°
2026-04-24 12:36 17.13598 -62.37165 3463 ft 146 kts 103°
2026-04-24 12:36 17.13363 -62.36138 3463 ft 145 kts 103°
2026-04-24 12:36 17.13130 -62.35113 3463 ft 145 kts 103°
2026-04-24 12:36 17.12895 -62.34083 3463 ft 146 kts 103°
2026-04-24 12:37 17.12660 -62.33051 3462 ft 146 kts 103°
2026-04-24 12:37 17.12424 -62.32017 3459 ft 146 kts 103°
2026-04-24 12:37 17.12189 -62.30989 3456 ft 145 kts 103°
2026-04-24 12:37 17.11954 -62.29964 3459 ft 145 kts 103°
2026-04-24 12:38 17.11721 -62.28943 3459 ft 145 kts 103°
2026-04-24 12:38 17.11487 -62.27918 3461 ft 145 kts 103°
2026-04-24 12:38 17.11253 -62.26890 3459 ft 145 kts 103°
2026-04-24 12:39 17.10549 -62.23808 3461 ft 146 kts 103°
2026-04-24 12:39 17.10313 -62.22777 3467 ft 146 kts 103°
2026-04-24 12:39 17.10076 -62.21739 3468 ft 147 kts 103°
2026-04-24 12:40 17.09838 -62.20696 3466 ft 147 kts 103°
2026-04-24 12:40 17.09599 -62.19658 3468 ft 147 kts 104°
2026-04-24 12:40 17.09362 -62.18622 3468 ft 146 kts 103°
2026-04-24 12:40 17.09125 -62.17590 3468 ft 146 kts 103°
2026-04-24 12:41 17.08889 -62.16557 3467 ft 146 kts 103°
2026-04-24 12:41 17.08652 -62.15519 3467 ft 147 kts 103°
2026-04-24 12:41 17.08417 -62.14498 3468 ft 146 kts 103°
2026-04-24 12:41 17.08177 -62.13453 3470 ft 146 kts 103°
2026-04-24 12:42 17.07945 -62.12441 3467 ft 145 kts 103°
2026-04-24 12:42 17.07708 -62.11403 3466 ft 145 kts 103°
2026-04-24 12:42 17.07478 -62.10394 3466 ft 145 kts 103°
2026-04-24 12:42 17.07243 -62.09376 3459 ft 144 kts 103°
2026-04-24 12:43 17.07010 -62.08359 3461 ft 143 kts 103°
2026-04-24 12:43 17.06778 -62.07346 3460 ft 143 kts 103°
2026-04-24 12:43 17.06545 -62.06332 3466 ft 144 kts 104°
2026-04-24 12:43 17.06311 -62.05309 3467 ft 145 kts 103°
2026-04-24 12:44 17.06074 -62.04281 3467 ft 146 kts 103°
2026-04-24 12:44 17.05836 -62.03251 3466 ft 146 kts 104°
2026-04-24 12:44 17.05599 -62.02218 3464 ft 146 kts 103°
2026-04-24 12:44 17.05361 -62.01184 3468 ft 147 kts 103°
2026-04-24 12:45 17.05123 -62.00146 3467 ft 147 kts 103°
2026-04-24 12:45 17.04884 -61.99106 3466 ft 147 kts 103°
2026-04-24 12:45 17.04646 -61.98071 3465 ft 147 kts 104°
2026-04-24 12:45 17.04409 -61.97036 3467 ft 146 kts 104°
2026-04-24 12:46 17.04171 -61.96005 3461 ft 146 kts 104°
2026-04-24 12:46 17.03934 -61.94979 3460 ft 145 kts 104°
2026-04-24 12:46 17.03699 -61.93956 3459 ft 145 kts 104°
2026-04-24 12:46 17.03465 -61.92933 3460 ft 145 kts 104°
2026-04-24 12:47 17.03229 -61.91911 3462 ft 145 kts 104°
2026-04-24 12:47 17.02992 -61.90887 3463 ft 145 kts 104°
2026-04-24 12:47 17.02752 -61.89863 3463 ft 145 kts 107°
2026-04-24 12:47 17.02240 -61.88973 3461 ft 145 kts 133°
2026-04-24 12:48 17.01409 -61.88379 3459 ft 147 kts 158°
2026-04-24 12:48 17.00422 -61.88101 3462 ft 147 kts 162°
2026-04-24 12:48 16.99450 -61.87774 3460 ft 147 kts 159°
2026-04-24 12:48 16.98487 -61.87419 3463 ft 147 kts 159°
2026-04-24 12:49 16.97522 -61.87072 3459 ft 147 kts 160°
2026-04-24 12:49 16.96552 -61.86736 3458 ft 147 kts 160°
2026-04-24 12:49 16.95582 -61.86406 3459 ft 147 kts 160°
2026-04-24 12:49 16.94609 -61.86076 3461 ft 147 kts 160°
2026-04-24 12:50 16.93630 -61.85745 3462 ft 148 kts 160°
2026-04-24 12:50 16.92648 -61.85412 3462 ft 149 kts 160°
2026-04-24 12:50 16.91664 -61.85079 3464 ft 149 kts 160°
2026-04-24 12:50 16.90693 -61.84749 3462 ft 149 kts 160°
2026-04-24 12:51 16.89709 -61.84416 3462 ft 149 kts 160°
2026-04-24 12:51 16.88728 -61.84085 3458 ft 148 kts 160°
2026-04-24 12:51 16.87755 -61.83755 3457 ft 147 kts 160°
2026-04-24 12:51 16.86756 -61.83656 3461 ft 150 kts 196°
2026-04-24 12:52 16.85842 -61.84189 3463 ft 151 kts 209°
2026-04-24 12:52 16.84944 -61.84762 3467 ft 152 kts 208°
2026-04-24 12:52 16.84031 -61.85322 3466 ft 152 kts 207°
2026-04-24 12:52 16.83062 -61.85736 3465 ft 150 kts 188°
2026-04-24 12:53 16.82027 -61.85892 3470 ft 150 kts 183°
2026-04-24 12:53 16.80990 -61.85892 3469 ft 149 kts 174°
2026-04-24 12:53 16.79955 -61.85822 3470 ft 149 kts 174°
2026-04-24 12:53 16.78921 -61.85737 3469 ft 149 kts 173°
2026-04-24 12:54 16.77891 -61.85649 3475 ft 148 kts 173°
2026-04-24 12:54 16.76861 -61.85563 3472 ft 148 kts 173°
2026-04-24 12:54 16.75829 -61.85476 3477 ft 149 kts 173°
2026-04-24 12:54 16.74795 -61.85387 3475 ft 149 kts 173°
2026-04-24 12:55 16.73762 -61.85299 3475 ft 149 kts 173°
2026-04-24 12:55 16.72729 -61.85207 3471 ft 149 kts 173°
2026-04-24 12:55 16.71702 -61.85115 3471 ft 148 kts 173°
2026-04-24 12:55 16.70675 -61.85025 3470 ft 148 kts 173°
2026-04-24 12:56 16.69650 -61.84933 3474 ft 148 kts 173°
2026-04-24 12:56 16.68618 -61.84839 3470 ft 149 kts 173°
2026-04-24 12:56 16.67934 -61.84779 3473 ft 149 kts 173°
2026-04-24 12:56 16.66899 -61.84689 3472 ft 149 kts 173°
2026-04-24 12:57 16.65865 -61.84594 3470 ft 148 kts 173°
2026-04-24 12:57 16.64840 -61.84497 3473 ft 148 kts 172°
2026-04-24 12:57 16.63849 -61.84249 3469 ft 147 kts 161°
2026-04-24 12:57 16.62891 -61.83893 3472 ft 146 kts 156°
2026-04-24 12:58 16.61952 -61.83490 3470 ft 146 kts 156°
2026-04-24 12:58 16.61017 -61.83081 3471 ft 146 kts 156°
2026-04-24 12:58 16.60077 -61.82676 3472 ft 147 kts 156°
2026-04-24 12:58 16.59129 -61.82268 3474 ft 148 kts 156°
2026-04-24 12:59 16.58182 -61.81856 3470 ft 148 kts 156°
2026-04-24 12:59 16.57234 -61.81444 3473 ft 148 kts 156°
2026-04-24 12:59 16.56287 -61.81030 3472 ft 148 kts 156°
2026-04-24 12:59 16.55334 -61.80617 3472 ft 148 kts 156°
2026-04-24 13:00 16.54384 -61.80202 3446 ft 147 kts 156°
2026-04-24 13:00 16.53446 -61.79790 3395 ft 145 kts 156°
2026-04-24 13:00 16.52520 -61.79382 3347 ft 144 kts 156°
2026-04-24 13:00 16.51596 -61.78977 3297 ft 144 kts 156°
2026-04-24 13:01 16.50668 -61.78572 3252 ft 145 kts 156°
2026-04-24 13:01 16.49751 -61.78173 3198 ft 145 kts 156°
2026-04-24 13:01 16.48824 -61.77770 3150 ft 144 kts 156°
2026-04-24 13:01 16.47898 -61.77366 3102 ft 144 kts 156°
2026-04-24 13:02 16.46970 -61.76964 3052 ft 144 kts 156°
2026-04-24 13:02 16.46043 -61.76560 3009 ft 145 kts 156°
2026-04-24 13:02 16.45115 -61.76158 2958 ft 144 kts 156°
2026-04-24 13:02 16.44193 -61.75759 2911 ft 143 kts 156°
2026-04-24 13:03 16.43275 -61.75358 2861 ft 143 kts 155°
2026-04-24 13:03 16.42355 -61.74958 2810 ft 143 kts 156°
2026-04-24 13:03 16.41435 -61.74557 2762 ft 144 kts 156°
2026-04-24 13:03 16.40510 -61.74156 2712 ft 144 kts 156°
2026-04-24 13:04 16.39584 -61.73754 2669 ft 144 kts 156°
2026-04-24 13:04 16.38661 -61.73350 2614 ft 144 kts 156°
2026-04-24 13:04 16.37737 -61.72943 2568 ft 144 kts 156°
2026-04-24 13:04 16.36873 -61.72432 2521 ft 143 kts 141°
2026-04-24 13:05 16.36083 -61.71798 2463 ft 144 kts 148°
2026-04-24 13:05 16.35205 -61.71296 2423 ft 145 kts 151°
2026-04-24 13:05 16.34317 -61.70803 2377 ft 145 kts 150°
2026-04-24 13:05 16.33425 -61.70306 2324 ft 145 kts 151°
2026-04-24 13:06 16.32521 -61.69797 2294 ft 153 kts 151°
2026-04-24 13:06 16.31481 -61.69518 2225 ft 160 kts 180°
2026-04-24 13:06 16.30383 -61.69649 2192 ft 157 kts 185°
2026-04-24 13:06 16.29322 -61.69703 2132 ft 149 kts 165°
2026-04-24 13:07 16.28579 -61.69061 2077 ft 140 kts 112°
2026-04-24 13:07 16.28407 -61.68087 2028 ft 136 kts 97°
2026-04-24 13:07 16.28333 -61.67117 1999 ft 132 kts 92°
2026-04-24 13:07 16.28337 -61.66184 1995 ft 126 kts 91°
2026-04-24 13:08 16.28346 -61.65284 1992 ft 123 kts 91°
2026-04-24 13:08 16.28359 -61.64386 1974 ft 127 kts 90°
2026-04-24 13:08 16.28329 -61.63455 1919 ft 130 kts 98°
2026-04-24 13:09 16.28081 -61.61536 1738 ft 126 kts 99°
2026-04-24 13:09 16.27961 -61.60651 1509 ft 123 kts 100°
2026-04-24 13:09 16.27801 -61.59783 1308 ft 121 kts 103°
2026-04-24 13:09 16.27608 -61.58965 1080 ft 106 kts 105°
2026-04-24 13:10 16.27466 -61.58290 889 ft 91 kts 101°
2026-04-24 13:10 16.27352 -61.57660 729 ft 88 kts 101°
2026-04-24 13:10 16.27235 -61.57033 553 ft 88 kts 101°
2026-04-24 13:10 16.27128 -61.56428 426 ft 85 kts 101°
2026-04-24 13:11 16.27025 -61.55828 279 ft 83 kts 100°
2026-04-24 13:11 16.26916 -61.55249 143 ft 80 kts 99°
2026-04-24 13:11 16.26811 -61.54696 43 ft 75 kts 101°
2026-04-24 13:11 16.26713 -61.54198 11 ft 54 kts 102°
2026-04-24 13:12 16.26652 -61.53883 15 ft 37 kts 101°
2026-04-24 13:12 16.26605 -61.53639 20 ft 33 kts 101°
2026-04-24 13:12 16.26560 -61.53405 20 ft 33 kts 101°
2026-04-24 13:12 16.26529 -61.53248 21 ft 9 kts 101°
2026-04-24 13:13 16.26472 -61.53188 21 ft 17 kts 178°
2026-04-24 13:13 16.26444 -61.53192 21 ft 1 kts 195°
2026-04-24 13:13 16.26397 -61.53204 21 ft 9 kts 191°
2026-04-24 13:13 16.26355 -61.53201 21 ft 8 kts 103°
2026-04-24 13:14 16.26428 -61.53160 21 ft 15 kts 36°
2026-04-24 13:14 16.26390 -61.53096 22 ft 15 kts 124°
2026-04-24 13:14 16.26348 -61.53059 22 ft 2 kts 166°
2026-04-24 13:14 16.26331 -61.53076 22 ft 7 kts 236°
2026-04-24 13:15 16.26323 -61.53086 22 ft 0 kts 212°